EW4745 Weather Reports


time (UTC)temp
C
wind
direction
speed
KPH
gust
KPH
rain 1hr
cm
rain 24hr
cm
rain mn
cm
humidity
%
barometer
mb
20260504100518 16 182 0.0 0.0 0.00 0.00 0.00 83 1014.2
20260504100223 16 182 0.0 0.0 0.00 0.00 0.00 83 1013.0
20260504090116 16 179 0.0 0.0 0.00 0.00 0.00 83 1014.6
20260504081614 16 178 0.0 0.0 0.00 0.00 0.00 81 1015.2
20260504081205 17 178 0.0 0.0 0.00 0.00 0.00 81 1014.0
20260504081114 17 178 0.0 0.0 0.00 0.00 0.00 81 1015.2
20260504080704 17 178 0.0 0.0 0.00 0.00 0.00 81 1014.0
20260504080613 17 178 0.0 0.0 0.00 0.00 0.00 80 1015.2
20260504080205 17 178 0.0 0.0 0.00 0.00 0.00 80 1013.9
20260504080114 17 178 0.0 0.0 0.00 0.00 0.00 80 1014.9
20260504070157 18 175 0.0 1.6 0.00 0.00 0.00 77 1014.7
20260504070142 18 175 0.0 1.6 0.00 0.00 0.00 77 1015.9
20260504060154 18 227 0.0 1.6 0.00 0.00 0.00 75 1015.5
20260504050654 18 211 0.0 1.6 0.00 0.00 0.00 73 1016.0
20260504050409 18 219 0.0 1.6 0.00 0.00 0.00 73 1017.3
20260504045914 18 226 0.0 1.6 0.00 0.00 0.00 73 1017.3
20260504045412 19 205 0.0 1.6 0.00 0.00 0.00 73 1017.6
20260504045148 19 206 0.0 1.6 0.00 0.00 0.00 73 1016.3
20260504044911 19 224 0.0 1.6 0.00 0.00 0.00 73 1017.6
20260504044642 19 248 0.0 1.6 0.00 0.00 0.00 73 1016.3
20260504044413 19 249 0.0 1.6 0.00 0.00 0.00 73 1017.6
20260504044139 19 248 0.0 1.6 0.00 0.00 0.00 73 1016.3
20260504043912 19 230 0.0 1.6 0.00 0.00 0.00 73 1017.6
20260504043630 19 179 0.0 1.6 0.00 0.00 0.00 73 1016.3
20260504043412 19 178 0.0 0.0 0.00 0.00 0.00 73 1017.6
20260504043128 19 179 0.0 1.6 0.00 0.00 0.00 73 1016.5
20260504042939 19 227 0.0 1.6 0.00 0.00 0.00 73 1017.6
20260504042627 19 165 0.0 3.2 0.00 0.00 0.00 73 1016.4
20260504042443 19 195 1.6 1.6 0.00 0.00 0.00 73 1017.6
20260504042127 19 222 0.0 3.2 0.00 0.00 0.00 73 1016.4
20260504041942 19 219 0.0 1.6 0.00 0.00 0.00 73 1017.6
20260504041627 19 196 0.0 3.2 0.00 0.00 0.00 73 1016.5
20260504041513 19 186 1.6 1.6 0.00 0.00 0.00 73 1017.6
20260504041011 19 70 0.0 0.0 0.00 0.00 0.00 73 1017.6
20260504040625 19 70 0.0 3.2 0.00 0.00 0.00 73 1016.7
20260504040513 19 59 0.0 3.2 0.00 0.00 0.00 73 1017.9
20260504040039 19 208 0.0 0.0 0.00 0.00 0.00 72 1017.9
20260504035625 19 207 0.0 1.6 0.00 0.00 0.00 72 1016.7
20260504035541 19 207 0.0 1.6 0.00 0.00 0.00 72 1017.9
20260504035124 19 209 0.0 1.6 0.00 0.00 0.00 72 1016.6
20260504035037 19 209 0.0 1.6 0.00 0.00 0.00 72 1017.9
20260504034622 19 186 0.0 1.6 0.00 0.00 0.00 72 1016.5
20260504034541 20 187 0.0 1.6 0.00 0.00 0.00 72 1017.6
20260504034124 19 152 0.0 0.0 0.00 0.00 0.00 72 1016.4
20260504034113 20 152 0.0 0.0 0.00 0.00 0.00 72 1017.6
20260504033622 19 151 0.0 3.2 0.00 0.00 0.00 72 1016.3
20260504033617 20 151 0.0 0.0 0.00 0.00 0.00 72 1017.6
20260504033138 20 150 0.0 0.0 0.00 0.00 0.00 72 1017.6
20260504033119 19 150 0.0 3.2 0.00 0.00 0.00 72 1016.3
20260504032637 20 205 0.0 0.0 0.00 0.00 0.00 71 1017.6
20260504032617 20 205 0.0 1.6 0.00 0.00 0.00 71 1016.5
20260504032138 20 220 0.0 1.6 0.00 0.00 0.00 71 1017.6
20260504032117 20 220 0.0 1.6 0.00 0.00 0.00 71 1016.5
20260504031640 20 213 0.0 0.0 0.00 0.00 0.00 71 1017.6
20260504031612 20 212 0.0 1.6 0.00 0.00 0.00 71 1016.6
20260504031140 20 213 0.0 0.0 0.00 0.00 0.00 71 1017.6
20260504031112 20 202 0.0 1.6 0.00 0.00 0.00 70 1016.4
20260504030715 20 204 0.0 0.0 0.00 0.00 0.00 70 1017.6
20260504030212 20 210 0.0 0.0 0.00 0.00 0.00 70 1017.6
20260504030113 20 236 0.0 1.6 0.00 0.00 0.00 69 1016.4
20260504025712 20 208 0.0 0.0 0.00 0.00 0.00 70 1017.6
20260504025607 20 209 0.0 1.6 0.00 0.00 0.00 69 1016.3
20260504025211 20 209 1.6 1.6 0.00 0.00 0.00 69 1017.6
20260504025101 20 209 0.0 1.6 0.00 0.00 0.00 69 1016.4
20260504024711 20 208 0.0 1.6 0.00 0.00 0.00 69 1017.6
20260504024555 20 207 0.0 1.6 0.00 0.00 0.00 69 1016.4
20260504024213 20 199 1.6 1.6 0.00 0.00 0.00 69 1017.6
20260504024049 20 231 0.0 1.6 0.00 0.00 0.00 68 1016.3
20260504023738 20 238 0.0 1.6 0.00 0.00 0.00 68 1017.3
20260504023549 20 276 0.0 1.6 0.00 0.00 0.00 68 1016.2
20260504023239 21 162 0.0 1.6 0.00 0.00 0.00 68 1017.3
20260504023049 21 163 0.0 1.6 0.00 0.00 0.00 68 1016.2
20260504022740 21 196 0.0 0.0 0.00 0.00 0.00 67 1017.3
20260504022549 21 194 0.0 1.6 0.00 0.00 0.00 67 1016.0
20260504022244 21 221 0.0 1.6 0.00 0.00 0.00 67 1016.9
20260504022047 21 228 0.0 1.6 0.00 0.00 0.00 67 1015.9
20260504021741 21 171 0.0 1.6 0.00 0.00 0.00 67 1016.9
20260504021547 21 189 0.0 3.2 0.00 0.00 0.00 67 1015.7
20260504021241 21 170 0.0 0.0 0.00 0.00 0.00 66 1016.9
20260504021048 21 167 0.0 3.2 0.00 0.00 0.00 66 1015.8
20260504020740 21 177 0.0 1.6 0.00 0.00 0.00 65 1016.9
20260504020550 21 159 0.0 1.6 0.00 0.00 0.00 65 1015.9
20260504020239 21 227 0.0 1.6 0.00 0.00 0.00 65 1016.9
20260504015727 21 234 0.0 1.6 0.00 0.00 0.00 65 1016.9
20260504015544 21 233 0.0 1.6 0.00 0.00 0.00 65 1015.9
20260504015217 21 230 0.0 1.6 0.00 0.00 0.00 64 1016.9
20260504015043 21 209 0.0 1.6 0.00 0.00 0.00 64 1015.8
20260504014717 21 202 0.0 1.6 0.00 0.00 0.00 64 1016.9
20260504014543 21 225 0.0 1.6 0.00 0.00 0.00 64 1015.8
20260504014217 21 196 0.0 1.6 0.00 0.00 0.00 64 1016.9
20260504014040 21 223 0.0 1.6 0.00 0.00 0.00 63 1015.7
20260504013719 22 224 0.0 1.6 0.00 0.00 0.00 63 1016.9
20260504013541 22 232 0.0 1.6 0.00 0.00 0.00 63 1015.6
20260504013217 22 157 0.0 1.6 0.00 0.00 0.00 62 1016.9
20260504013041 22 163 0.0 3.2 0.00 0.00 0.00 62 1015.7
20260504012718 22 142 0.0 3.2 0.00 0.00 0.00 61 1016.9
20260504012541 22 297 0.0 3.2 0.00 0.00 0.00 61 1015.7
20260504012218 22 184 0.0 0.0 0.00 0.00 0.00 61 1016.9
20260504011717 22 224 0.0 0.0 0.00 0.00 0.00 60 1016.9
20260504011535 22 223 0.0 8.0 0.00 0.00 0.00 60 1015.6
20260504011216 22 149 0.0 1.6 0.00 0.00 0.00 59 1016.6
20260504011033 22 150 0.0 4.8 0.00 0.00 0.00 60 1015.5
20260504010716 22 74 0.0 4.8 0.00 0.00 0.00 59 1016.9
20260504010216 22 279 0.0 1.6 0.00 0.00 0.00 59 1016.6
20260504010033 22 248 0.0 3.2 0.00 0.00 0.00 59 1015.6
20260504005718 22 247 0.0 1.6 0.00 0.00 0.00 59 1016.9
20260504005531 22 347 0.0 3.2 0.00 0.00 0.00 59 1015.7
20260504005216 23 155 0.0 0.0 0.00 0.00 0.00 58 1016.9
20260504004717 23 200 0.0 1.6 0.00 0.00 0.00 58 1016.9
20260504004528 23 174 0.0 6.4 0.00 0.00 0.00 58 1015.6
20260504004216 23 279 0.0 1.6 0.00 0.00 0.00 57 1016.9
20260504004026 23 336 0.0 6.4 0.00 0.00 0.00 57 1015.8
20260504003716 23 322 0.0 6.4 0.00 0.00 0.00 57 1016.9
20260504003527 23 103 0.0 3.2 0.00 0.00 0.00 56 1015.7
20260504003217 23 128 0.0 1.6 0.00 0.00 0.00 56 1016.9
20260504003026 23 117 0.0 4.8 0.00 0.00 0.00 56 1015.7
20260504002716 23 40 0.0 3.2 0.00 0.00 0.00 56 1016.9
20260504002526 23 342 1.6 8.0 0.00 0.00 0.00 55 1015.7
20260504002216 23 144 0.0 3.2 0.00 0.00 0.00 55 1016.9
20260504002027 23 277 0.0 8.0 0.00 0.00 0.00 55 1015.8
20260504001716 24 274 0.0 1.6 0.00 0.00 0.00 55 1016.9
20260504001527 24 298 0.0 11.3 0.00 0.00 0.00 55 1015.9
20260504001217 24 279 0.0 1.6 0.00 0.00 0.00 55 1016.9
20260504001027 24 292 1.6 11.3 0.00 0.00 0.00 55 1015.9
20260504000716 24 62 1.6 11.3 0.00 0.00 0.00 55 1016.9
20260504000522 24 277 1.6 9.7 0.00 0.00 0.00 55 1015.8
20260504000214 24 88 1.6 6.4 0.00 0.00 0.00 54 1016.9
20260504000016 24 53 1.6 9.7 0.00 0.00 0.00 54 1015.8
20260503235715 25 59 3.2 6.4 0.00 0.00 0.00 54 1016.9
20260503235215 25 325 1.6 8.0 0.00 0.00 0.00 53 1016.9
20260503235012 25 113 1.6 6.4 0.00 0.00 0.00 54 1015.7
20260503234715 25 277 0.0 1.6 0.00 0.00 0.00 53 1016.9
20260503234213 25 151 3.2 6.4 0.00 0.00 0.00 53 1016.9
20260503233714 25 246 0.0 1.6 0.00 0.00 0.00 53 1016.9
20260503233514 25 176 1.6 6.4 0.00 0.00 0.00 52 1015.7
20260503233214 26 230 4.8 6.4 0.00 0.00 0.00 53 1016.9
20260503233010 26 166 1.6 4.8 0.00 0.00 0.00 54 1015.6
20260503232715 26 346 0.0 3.2 0.00 0.00 0.00 53 1016.9
20260503232217 26 144 0.0 4.8 0.00 0.00 0.00 51 1016.9
20260503232012 26 247 1.6 6.4 0.00 0.00 0.00 51 1015.7
20260503231714 26 241 0.0 3.2 0.00 0.00 0.00 52 1016.9
20260503231214 26 198 3.2 4.8 0.00 0.00 0.00 52 1016.9
20260503230715 26 200 3.2 3.2 0.00 0.00 0.00 50 1016.9
20260503230213 26 228 0.0 1.6 0.00 0.00 0.00 50 1016.9
20260503230008 26 246 1.6 12.9 0.00 0.00 0.00 49 1015.9
20260503225715 26 276 1.6 1.6 0.00 0.00 0.00 48 1016.9
20260503225509 26 277 0.0 6.4 0.00 0.00 0.00 48 1016.0
20260503225216 26 84 1.6 4.8 0.00 0.00 0.00 48 1017.3
20260503225010 26 123 1.6 11.3 0.00 0.00 0.00 47 1016.0
20260503224712 26 180 1.6 4.8 0.00 0.00 0.00 46 1017.3
20260503224212 27 313 0.0 6.4 0.00 0.00 0.00 44 1017.3
20260503223714 27 83 6.4 8.0 0.00 0.00 0.00 44 1017.3
20260503223212 27 111 0.0 6.4 0.00 0.00 0.00 42 1016.9
20260503223010 27 71 1.6 6.4 0.00 0.00 0.00 43 1016.0
20260503222714 27 33 0.0 4.8 0.00 0.00 0.00 44 1017.3
20260503222214 27 76 1.6 6.4 0.00 0.00 0.00 43 1017.3
20260503222007 27 171 1.6 11.3 0.00 0.00 0.00 43 1016.2
20260503221714 27 252 0.0 8.0 0.00 0.00 0.00 41 1017.6
20260503221507 27 35 1.6 11.3 0.00 0.00 0.00 41 1016.3
20260503221213 27 102 0.0 1.6 0.00 0.00 0.00 40 1017.6
20260503221006 27 229 1.6 11.3 0.00 0.00 0.00 41 1016.3
20260503220714 28 235 0.0 6.4 0.00 0.00 0.00 41 1017.6
20260503220503 28 253 1.6 4.8 0.00 0.00 0.00 41 1016.4
20260503220214 28 209 1.6 3.2 0.00 0.00 0.00 42 1017.6
20260503220003 28 11 1.6 8.0 0.00 0.00 0.00 41 1016.3
20260503215714 28 49 0.0 6.4 0.00 0.00 0.00 41 1017.6
20260503215502 28 78 0.0 8.0 0.00 0.00 0.00 40 1016.4
20260503215215 28 55 0.0 1.6 0.00 0.00 0.00 40 1017.6
20260503215003 28 85 0.0 6.4 0.00 0.00 0.00 39 1016.5
20260503214713 28 38 0.0 3.2 0.00 0.00 0.00 39 1017.9
20260503214504 28 254 0.0 6.4 0.00 0.00 0.00 39 1016.6
20260503214213 29 299 1.6 1.6 0.00 0.00 0.00 38 1017.9
20260503214002 29 177 0.0 3.2 0.00 0.00 0.00 39 1016.7
20260503213715 29 56 1.6 1.6 0.00 0.00 0.00 39 1017.9
20260503213502 29 54 0.0 3.2 0.00 0.00 0.00 38 1016.7
20260503213215 30 295 0.0 3.2 0.00 0.00 0.00 38 1017.9
20260503213002 30 223 1.6 6.4 0.00 0.00 0.00 37 1016.9
20260503212714 30 213 3.2 3.2 0.00 0.00 0.00 35 1017.9
20260503212503 30 275 0.0 6.4 0.00 0.00 0.00 37 1016.9
20260503212216 30 178 3.2 3.2 0.00 0.00 0.00 38 1018.3
20260503211715 30 53 1.6 1.6 0.00 0.00 0.00 38 1018.3
20260503211458 30 53 1.6 8.0 0.00 0.00 0.00 38 1017.1
20260503211212 30 60 3.2 6.4 0.00 0.00 0.00 38 1018.3
20260503210959 29 109 1.6 8.0 0.00 0.00 0.00 39 1017.1
20260503210712 29 53 1.6 8.0 0.00 0.00 0.00 37 1018.3
20260503210459 29 216 1.6 8.0 0.00 0.00 0.00 37 1017.2
20260503210214 30 182 3.2 4.8 0.00 0.00 0.00 36 1018.6
20260503205958 30 209 1.6 8.0 0.00 0.00 0.00 36 1017.4
20260503205711 30 39 1.6 3.2 0.00 0.00 0.00 40 1018.6
20260503205459 29 131 1.6 8.0 0.00 0.00 0.00 39 1017.3
20260503205211 30 45 4.8 4.8 0.00 0.00 0.00 39 1018.6
20260503204959 29 83 1.6 9.7 0.00 0.00 0.00 38 1017.4
20260503204712 29 205 3.2 8.0 0.00 0.00 0.00 39 1018.6
20260503204459 29 212 1.6 9.7 0.00 0.00 0.00 39 1017.4
20260503204212 29 83 0.0 3.2 0.00 0.00 0.00 38 1018.6
20260503203959 29 342 1.6 8.0 0.00 0.00 0.00 39 1017.6
20260503203714 29 57 4.8 8.0 0.00 0.00 0.00 37 1019.0
20260503203455 29 234 1.6 14.5 0.00 0.00 0.00 37 1017.7
20260503203213 29 70 0.0 6.4 0.00 0.00 0.00 38 1019.0
20260503202955 29 327 3.2 14.5 0.00 0.00 0.00 39 1017.8
20260503202714 29 204 1.6 14.5 0.00 0.00 0.00 39 1019.0
20260503202456 29 196 4.8 12.9 0.00 0.00 0.00 38 1017.7
20260503202214 29 135 1.6 8.0 0.00 0.00 0.00 40 1019.0
20260503201715 29 205 4.8 12.9 0.00 0.00 0.00 37 1019.0
20260503201215 30 238 0.0 4.8 0.00 0.00 0.00 37 1019.3
20260503200955 30 51 1.6 6.4 0.00 0.00 0.00 35 1018.1
20260503200738 30 51 0.0 3.2 0.00 0.00 0.00 39 1019.3
20260503200240 29 273 1.6 4.8 0.00 0.00 0.00 39 1019.3
20260503195956 29 213 3.2 6.4 0.00 0.00 0.00 38 1018.1
20260503195740 28 194 1.6 6.4 0.00 0.00 0.00 39 1019.3
20260503195457 28 225 3.2 11.3 0.00 0.00 0.00 39 1018.2
20260503195237 29 254 0.0 6.4 0.00 0.00 0.00 39 1019.6
20260503194952 29 241 1.6 11.3 0.00 0.00 0.00 38 1018.3
20260503194740 30 230 0.0 8.0 0.00 0.00 0.00 38 1019.6
20260503194450 30 167 1.6 11.3 0.00 0.00 0.00 39 1018.3
20260503194241 30 237 0.0 3.2 0.00 0.00 0.00 37 1019.6
20260503193950 30 24 1.6 11.3 0.00 0.00 0.00 37 1018.4
20260503193811 30 67 1.6 11.3 0.00 0.00 0.00 36 1019.6
20260503193450 30 51 1.6 4.8 0.00 0.00 0.00 38 1018.5
20260503193311 30 57 1.6 4.8 0.00 0.00 0.00 37 1019.6
20260503192950 30 220 1.6 8.0 0.00 0.00 0.00 37 1018.6
20260503192813 30 81 4.8 4.8 0.00 0.00 0.00 36 1019.6
20260503192450 30 88 0.0 8.0 0.00 0.00 0.00 38 1018.7
20260503192310 30 159 0.0 3.2 0.00 0.00 0.00 38 1020.0
20260503191951 30 161 0.0 6.4 0.00 0.00 0.00 37 1018.7
20260503191810 30 216 1.6 1.6 0.00 0.00 0.00 37 1020.0
20260503191451 30 227 0.0 4.8 0.00 0.00 0.00 39 1018.7
20260503191314 30 325 0.0 1.6 0.00 0.00 0.00 40 1020.0
20260503190952 29 252 0.0 4.8 0.00 0.00 0.00 39 1018.8
20260503190812 29 76 0.0 1.6 0.00 0.00 0.00 39 1020.0
20260503190446 28 235 1.6 9.7 0.00 0.00 0.00 41 1018.8
20260503190312 28 254 0.0 4.8 0.00 0.00 0.00 41 1020.0
20260503185946 28 221 4.8 12.9 0.00 0.00 0.00 41 1018.8
20260503185810 28 163 0.0 9.7 0.00 0.00 0.00 41 1020.0
20260503185446 28 207 3.2 12.9 0.00 0.00 0.00 40 1018.9
20260503185310 28 227 6.4 9.7 0.00 0.00 0.00 39 1020.0
20260503184946 28 228 1.6 9.7 0.00 0.00 0.00 39 1019.0
20260503184813 28 261 4.8 9.7 0.00 0.00 0.00 40 1020.3
20260503184315 28 256 1.6 3.2 0.00 0.00 0.00 39 1020.7
20260503184000 28 317 1.6 11.3 0.00 0.00 0.00 41 1019.3
20260503183812 28 158 1.6 4.8 0.00 0.00 0.00 41 1020.7
20260503183446 28 49 1.6 11.3 0.00 0.00 0.00 43 1019.3
20260503183310 27 239 0.0 11.3 0.00 0.00 0.00 43 1020.7
20260503182812 27 35 4.8 4.8 0.00 0.00 0.00 45 1020.7
20260503182447 27 88 3.2 9.7 0.00 0.00 0.00 44 1019.5
20260503182312 27 86 0.0 8.0 0.00 0.00 0.00 43 1020.7
20260503181944 28 71 1.6 9.7 0.00 0.00 0.00 41 1019.6
20260503181811 28 80 6.4 9.7 0.00 0.00 0.00 41 1020.7
20260503181442 28 83 1.6 11.3 0.00 0.00 0.00 43 1019.6
20260503181312 28 323 1.6 3.2 0.00 0.00 0.00 45 1021.0
20260503180944 28 206 1.6 11.3 0.00 0.00 0.00 44 1019.7
20260503180814 28 98 0.0 3.2 0.00 0.00 0.00 44 1021.0
20260503180442 28 82 1.6 8.0 0.00 0.00 0.00 46 1019.8
20260503180313 27 64 1.6 4.8 0.00 0.00 0.00 44 1021.0
20260503175944 27 215 1.6 8.0 0.00 0.00 0.00 42 1020.0
20260503175841 27 159 0.0 8.0 0.00 0.00 0.00 44 1021.3
20260503175442 27 149 1.6 9.7 0.00 0.00 0.00 44 1020.1
20260503175410 27 66 0.0 4.8 0.00 0.00 0.00 44 1021.3
20260503174943 27 142 3.2 11.3 0.00 0.00 0.00 47 1020.3
20260503174914 27 140 1.6 6.4 0.00 0.00 0.00 45 1021.3
20260503174410 27 82 3.2 8.0 0.00 0.00 0.00 42 1021.3
20260503173942 28 70 1.6 6.4 0.00 0.00 0.00 41 1020.3
20260503173912 28 55 3.2 4.8 0.00 0.00 0.00 42 1021.3
20260503173443 28 96 0.0 3.2 0.00 0.00 0.00 44 1020.4
20260503173413 27 135 0.0 3.2 0.00 0.00 0.00 45 1021.3
20260503172943 27 280 1.6 8.0 0.00 0.00 0.00 45 1020.4
20260503172910 27 167 1.6 1.6 0.00 0.00 0.00 45 1021.7
20260503172441 27 65 1.6 8.0 0.00 0.00 0.00 43 1020.5
20260503172413 27 355 3.2 6.4 0.00 0.00 0.00 43 1021.7
20260503171940 28 332 1.6 8.0 0.00 0.00 0.00 43 1020.7
20260503171914 28 31 0.0 3.2 0.00 0.00 0.00 43 1022.0
20260503171441 28 296 1.6 8.0 0.00 0.00 0.00 43 1020.6
20260503171413 28 138 1.6 8.0 0.00 0.00 0.00 43 1021.7
20260503170913 27 257 0.0 4.8 0.00 0.00 0.00 43 1022.0
20260503170440 27 114 1.6 9.7 0.00 0.00 0.00 41 1020.8
20260503170413 27 100 6.4 9.7 0.00 0.00 0.00 41 1022.0
20260503150821 25 56 0.0 4.8 0.00 0.00 0.00 56 1021.1
20260503150511 25 56 1.6 1.6 0.00 0.00 0.00 57 1022.4
20260503150322 24 52 0.0 4.8 0.00 0.00 0.00 57 1021.0
20260503140212 20 46 0.0 1.6 0.00 0.00 0.00 74 1022.0
20260503131306 16 57 0.0 1.6 0.00 0.00 0.00 84 1020.5
20260503131036 16 57 0.0 1.6 0.00 0.00 0.00 85 1021.7
20260503130806 16 57 0.0 0.0 0.00 0.00 0.00 86 1020.4
20260503130531 16 58 0.0 0.0 0.00 0.00 0.00 87 1021.3
20260503130302 15 57 0.0 1.6 0.00 0.00 0.00 88 1020.3
20260503110701 12 78 0.0 0.0 0.00 0.00 0.00 94 1019.0
20260503110529 12 78 0.0 0.0 0.00 0.00 0.00 94 1020.3
20260503110156 12 78 0.0 0.0 0.00 0.00 0.00 94 1019.1